QPF
0.00 0.00 0.00 0.00 0.01 0.01 0.02 0.02 0.02 0.01 0.01 0.00 0.00 0.01 0.01 0.02 0.02 0.01 0.01 0.01 0.02 0.02 0.01 0.01 0.01 0.01 0.01 0.00 0.00 0.00 0.00 0.00 0.00 0.00 0.00 0.00 0.00 0.00 0.00 0.00 0.00 0.00 0.00 0.01 0.01 0.02 0.01 0.00 0.00 0.00 0.00 0.00 0.00 0.00 0.00 0.00 0.00 0.00 0.00 0.00 0.00 0.00 0.00
0.00 0.00 0.00 0.00 0.00 0.00 0.01 0.01 0.01 0.01 0.01 0.00 0.00 0.00 0.01 0.01 0.00 0.00 0.01 0.01 0.01 0.01 0.01 0.01 0.00 0.01 0.00 0.00 0.00 0.00 0.00 0.00 0.00 0.00 0.00 0.00 0.00 0.00 0.00 0.00 0.00 0.00 0.00 0.00 0.01 0.01 0.01 0.00 0.00 0.00 0.00 0.00 0.00 0.00 0.00 0.00 0.00 0.00 0.00 0.00 0.00 0.00 0.00
0.00 0.00 0.00 0.00 0.00 0.00 0.00 0.01 0.01 0.01 0.01 0.00 0.00 0.00 0.00 0.01 0.00 0.00 0.01 0.01 0.01 0.02 0.01 0.01 0.00 0.00 0.00 0.00 0.00 0.00 0.00 0.00 0.00 0.00 0.00 0.00 0.00 0.00 0.00 0.00 0.00 0.00 0.00 0.00 0.01 0.00 0.00 0.00 0.00 0.00 0.00 0.00 0.00 0.00 0.00 0.00 0.00 0.00 0.00 0.00 0.00 0.00 0.00
0.00 0.00 0.00 0.00 0.00 0.00 0.01 0.00 0.01 0.01 0.01 0.00 0.00 0.00 0.00 0.01 0.01 0.01 0.02 0.01 0.01 0.01 0.01 0.00 0.00 0.00 0.00 0.00 0.00 0.00 0.00 0.00 0.00 0.00 0.00 0.00 0.00 0.00 0.00 0.00 0.00 0.00 0.00 0.00 0.00 0.00 0.00 0.00 0.00 0.00 0.00 0.00 0.00 0.00 0.00 0.00 0.00 0.00 0.00 0.00 0.00 0.00 0.00
0.00 0.00 0.00 0.00 0.00 0.00 0.00 0.01 0.01 0.01 0.01 0.01 0.00 0.00 0.00 0.00 0.00 0.01 0.01 0.01 0.01 0.01 0.01 0.00 0.00 0.00 0.00 0.00 0.00 0.00 0.00 0.00 0.00 0.00 0.00 0.00 0.00 0.00 0.00 0.00 0.00 0.00 0.00 0.00 0.00 0.00 0.00 0.00 0.00 0.00 0.00 0.00 0.00 0.00 0.00 0.00 0.00 0.00 0.00 0.00 0.00 0.00 0.00
0.00 0.00 0.00 0.00 0.00 0.00 0.00 0.00 0.00 0.00 0.00 0.00 0.00 0.00 0.00 0.01 0.01 0.01 0.01 0.01 0.01 0.01 0.01 0.00 0.00 0.00 0.00 0.00 0.00 0.00 0.00 0.00 0.00 0.00 0.00 0.00 0.00 0.00 0.00 0.00 0.00 0.00 0.00 0.00 0.00 0.00 0.00 0.00 0.00 0.00 0.00 0.00 0.00 0.00 0.00 0.00 0.00 0.00 0.00 0.00 0.00 0.00 0.00
0.00 0.00 0.00 0.00 0.00 0.00 0.00 0.00 0.00 0.00 0.00 0.00 0.00 0.00 0.00 0.00 0.00 0.01 0.01 0.01 0.01 0.01 0.01 0.00 0.00 0.00 0.00 0.00 0.00 0.00 0.00 0.00 0.00 0.00 0.00 0.00 0.00 0.00 0.00 0.00 0.00 0.00 0.00 0.00 0.00 0.00 0.01 0.00 0.00 0.00 0.00 0.00 0.00 0.00 0.00 0.00 0.00 0.00 0.00 0.00 0.00 0.00 0.00
0.00 0.00 0.00 0.00 0.00 0.00 0.00 0.00 0.00 0.00 0.00 0.00 0.00 0.00 0.00 0.00 0.00 0.00 0.01 0.01 0.00 0.00 0.00 0.00 0.00 0.00 0.00 0.00 0.00 0.00 0.00 0.00 0.00 0.00 0.00 0.00 0.00 0.00 0.00 0.00 0.00 0.00 0.00 0.00 0.00 0.00 0.00 0.00 0.00 0.00 0.00 0.00 0.00 0.00 0.00 0.00 0.00 0.00 0.00 0.00 0.00 0.00 0.00
0.00 0.00 0.00 0.00 0.00 0.00 0.00 0.00 0.00 0.00 0.00 0.00 0.00 0.00 0.00 0.00 0.00 0.00 0.00 0.00 0.00 0.00 0.00 0.00 0.01 0.00 0.00 0.00 0.00 0.00 0.00 0.00 0.00 0.00 0.00 0.00 0.00 0.00 0.00 0.00 0.00 0.00 0.00 0.00 0.00 0.00 0.00 0.00 0.00 0.00 0.00 0.00 0.00 0.00 0.00 0.00 0.00 0.00 0.00 0.00 0.00 0.00 0.00
0.00 0.00 0.00 0.00 0.00 0.00 0.00 0.00 0.00 0.00 0.00 0.00 0.00 0.00 0.00 0.00 0.00 0.00 0.00 0.00 0.00 0.00 0.00 0.00 0.00 0.00 0.00 0.00 0.00 0.00 0.00 0.00 0.00 0.00 0.00 0.00 0.00 0.00 0.00 0.00 0.00 0.00 0.00 0.00 0.00 0.00 0.00 0.00 0.00 0.00 0.00 0.00 0.00 0.00 0.00 0.00 0.00 0.00 0.00 0.00 0.00 0.00 0.00
0.00 0.00 0.00 0.00 0.00 0.00 0.00 0.00 0.00 0.00 0.00 0.00 0.00 0.00 0.00 0.00 0.00 0.00 0.00 0.01 0.00 0.01 0.01 0.01 0.01 0.00 0.00 0.00 0.00 0.00 0.00 0.00 0.00 0.00 0.00 0.00 0.00 0.00 0.00 0.00 0.00 0.00 0.00 0.00 0.00 0.00 0.00 0.00 0.00 0.00 0.00 0.00 0.00 0.00 0.00 0.00 0.00 0.00 0.00 0.00 0.00 0.00 0.00
0.00 0.00 0.00 0.00 0.00 0.00 0.00 0.00 0.00 0.00 0.00 0.00 0.00 0.00 0.00 0.00 0.00 0.00 0.00 0.00 0.01 0.02 0.02 0.02 0.00 0.01 0.01 0.01 0.00 0.01 0.01 0.01 0.01 0.00 0.00 0.00 0.00 0.00 0.00 0.00 0.00 0.00 0.00 0.00 0.00 0.00 0.00 0.00 0.00 0.00 0.00 0.00 0.00 0.00 0.00 0.00 0.00 0.00 0.00 0.00 0.00 0.00 0.00
0.00 0.00 0.00 0.00 0.00 0.00 0.00 0.00 0.00 0.00 0.00 0.00 0.00 0.00 0.00 0.00 0.00 0.00 0.00 0.01 0.02 0.01 0.02 0.02 0.01 0.01 0.01 0.00 0.00 0.01 0.01 0.01 0.01 0.01 0.00 0.00 0.00 0.01 0.01 0.01 0.01 0.01 0.00 0.00 0.00 0.00 0.00 0.00 0.00 0.00 0.00 0.00 0.00 0.00 0.00 0.00 0.00 0.00 0.00 0.00 0.00 0.00 0.00
0.00 0.00 0.00 0.00 0.00 0.00 0.00 0.00 0.00 0.00 0.00 0.00 0.00 0.00 0.00 0.00 0.00 0.00 0.00 0.02 0.01 0.01 0.01 0.02 0.01 0.01 0.01 0.01 0.01 0.01 0.01 0.01 0.01 0.01 0.00 0.00 0.00 0.00 0.01 0.02 0.01 0.01 0.01 0.00 0.00 0.00 0.00 0.00 0.00 0.00 0.00 0.00 0.00 0.00 0.00 0.00 0.00 0.00 0.00 0.00 0.00 0.00 0.00
0.00 0.00 0.00 0.00 0.00 0.00 0.00 0.00 0.00 0.00 0.00 0.00 0.00 0.00 0.00 0.00 0.00 0.00 0.00 0.00 0.01 0.01 0.01 0.00 0.00 0.01 0.05 0.03 0.01 0.01 0.01 0.01 0.01 0.00 0.00 0.01 0.01 0.02 0.01 0.02 0.01 0.01 0.01 0.01 0.00 0.00 0.00 0.00 0.00 0.00 0.00 0.00 0.00 0.00 0.00 0.00 0.00 0.00 0.00 0.00 0.00 0.00 0.00
0.00 0.00 0.00 0.00 0.00 0.00 0.00 0.00 0.00 0.00 0.00 0.00 0.00 0.00 0.00 0.00 0.00 0.00 0.00 0.00 0.01 0.00 0.01 0.01 0.01 0.02 0.08 0.04 0.01 0.01 0.02 0.05 0.09 0.15 0.12 0.13 0.14 0.09 0.05 0.02 0.01 0.00 0.01 0.00 0.00 0.00 0.00 0.00 0.00 0.00 0.00 0.00 0.00 0.00 0.00 0.00 0.00 0.00 0.00 0.00 0.00 0.00 0.00
0.00 0.00 0.00 0.00 0.00 0.00 0.00 0.00 0.00 0.00 0.00 0.00 0.00 0.00 0.00 0.00 0.00 0.00 0.00 0.00 0.00 0.01 0.01 0.00 0.01 0.03 0.09 0.05 0.02 0.03 0.09 0.13 0.10 0.17 0.18 0.26 0.26 0.16 0.08 0.05 0.02 0.01 0.00 0.00 0.00 0.00 0.00 0.00 0.00 0.00 0.00 0.00 0.00 0.00 0.00 0.00 0.00 0.00 0.00 0.00 0.00 0.00 0.00
0.00 0.00 0.00 0.00 0.00 0.00 0.00 0.00 0.00 0.00 0.00 0.00 0.00 0.00 0.00 0.00 0.00 0.00 0.00 0.00 0.00 0.00 0.00 0.00 0.01 0.05 0.08 0.05 0.06 0.10 0.30 0.22 0.19 0.23 0.23 0.20 0.20 0.07 0.13 0.16 0.03 0.01 0.00 0.00 0.00 0.00 0.00 0.00 0.00 0.00 0.00 0.00 0.00 0.00 0.00 0.00 0.00 0.00 0.00 0.00 0.00 0.00 0.00
0.00 0.00 0.00 0.00 0.00 0.00 0.00 0.00 0.00 0.00 0.00 0.00 0.00 0.00 0.00 0.00 0.00 0.00 0.00 0.00 0.00 0.00 0.00 0.01 0.01 0.05 0.15 0.12 0.07 0.29 0.21 0.23 0.20 0.16 0.20 0.25 0.16 0.08 0.24 0.32 0.20 0.02 0.01 0.00 0.00 0.00 0.00 0.00 0.00 0.00 0.00 0.00 0.00 0.00 0.00 0.00 0.00 0.00 0.00 0.00 0.00 0.00 0.00
0.00 0.00 0.00 0.00 0.00 0.00 0.00 0.00 0.00 0.00 0.00 0.00 0.00 0.00 0.00 0.00 0.00 0.00 0.00 0.00 0.00 0.00 0.00 0.00 0.00 0.06 0.11 0.19 0.28 0.38 0.38 0.26 0.22 0.26 0.16 0.28 0.17 0.20 0.19 0.31 0.25 0.02 0.01 0.00 0.00 0.00 0.00 0.00 0.00 0.00 0.00 0.00 0.00 0.00 0.00 0.00 0.00 0.00 0.00 0.00 0.00 0.00 0.00
0.00 0.00 0.00 0.00 0.00 0.00 0.00 0.00 0.00 0.00 0.00 0.00 0.00 0.00 0.00 0.00 0.00 0.00 0.00 0.00 0.00 0.00 0.00 0.00 0.01 0.00 0.17 0.29 0.42 0.40 0.18 0.14 0.11 0.13 0.13 0.11 0.19 0.32 0.16 0.37 0.06 0.02 0.01 0.00 0.00 0.00 0.00 0.00 0.00 0.00 0.00 0.00 0.00 0.00 0.00 0.00 0.00 0.00 0.00 0.00 0.00 0.00 0.00
0.00 0.00 0.00 0.00 0.00 0.00 0.00 0.00 0.00 0.00 0.00 0.00 0.00 0.00 0.00 0.00 0.00 0.00 0.00 0.00 0.00 0.00 0.00 0.01 0.01 0.01 0.23 0.29 0.45 0.13 0.02 0.04 0.19 0.22 0.19 0.21 0.32 0.33 0.22 0.03 0.03 0.01 0.00 0.00 0.00 0.00 0.00 0.00 0.00 0.00 0.00 0.00 0.00 0.00 0.00 0.00 0.00 0.00 0.00 0.00 0.00 0.00 0.00
0.00 0.00 0.00 0.00 0.00 0.00 0.00 0.00 0.00 0.00 0.00 0.00 0.00 0.00 0.00 0.00 0.00 0.00 0.00 0.00 0.00 0.01 0.01 0.01 0.01 0.03 0.28 0.31 0.29 0.05 0.01 0.01 0.07 0.21 0.28 0.25 0.21 0.21 0.10 0.02 0.01 0.00 0.00 0.00 0.00 0.00 0.00 0.00 0.00 0.00 0.00 0.00 0.00 0.00 0.00 0.00 0.00 0.00 0.00 0.00 0.00 0.00 0.00
0.00 0.00 0.00 0.00 0.00 0.00 0.00 0.00 0.00 0.00 0.00 0.00 0.00 0.00 0.00 0.00 0.00 0.00 0.00 0.00 0.00 0.01 0.01 0.02 0.01 0.05 0.11 0.44 0.43 0.08 0.01 0.02 0.03 0.07 0.33 0.33 0.06 0.02 0.02 0.02 0.01 0.00 0.00 0.00 0.00 0.00 0.00 0.00 0.00 0.00 0.00 0.00 0.00 0.00 0.00 0.00 0.00 0.00 0.00 0.00 0.00 0.00 0.00
0.00 0.00 0.00 0.00 0.00 0.00 0.00 0.00 0.00 0.00 0.00 0.00 0.00 0.00 0.00 0.00 0.00 0.00 0.00 0.00 0.01 0.01 0.02 0.01 0.01 0.02 0.08 0.13 0.25 0.05 0.02 0.03 0.03 0.05 0.04 0.14 0.05 0.03 0.03 0.00 0.00 0.00 0.00 0.00 0.00 0.00 0.00 0.00 0.00 0.00 0.00 0.00 0.00 0.00 0.00 0.00 0.00 0.00 0.00 0.00 0.00 0.00 0.00
0.00 0.00 0.00 0.00 0.00 0.00 0.00 0.00 0.00 0.00 0.00 0.00 0.00 0.00 0.00 0.00 0.00 0.00 0.00 0.01 0.01 0.01 0.02 0.02 0.01 0.03 0.10 0.14 0.03 0.01 0.02 0.02 0.03 0.04 0.03 0.02 0.01 0.02 0.01 0.00 0.00 0.00 0.00 0.00 0.00 0.00 0.00 0.00 0.00 0.00 0.00 0.00 0.00 0.00 0.00 0.00 0.00 0.00 0.00 0.00 0.00 0.00 0.00
0.00 0.00 0.00 0.00 0.00 0.00 0.00 0.00 0.00 0.00 0.00 0.00 0.00 0.00 0.00 0.00 0.00 0.01 0.00 0.01 0.01 0.02 0.02 0.02 0.01 0.02 0.01 0.01 0.02 0.02 0.03 0.03 0.02 0.03 0.03 0.02 0.02 0.03 0.02 0.00 0.00 0.00 0.00 0.00 0.00 0.00 0.00 0.00 0.00 0.00 0.00 0.00 0.00 0.00 0.00 0.00 0.00 0.00 0.00 0.00 0.00 0.00 0.00
0.00 0.00 0.00 0.00 0.00 0.00 0.00 0.00 0.00 0.00 0.00 0.00 0.00 0.00 0.00 0.00 0.00 0.01 0.01 0.01 0.02 0.02 0.01 0.01 0.01 0.01 0.01 0.01 0.02 0.02 0.03 0.03 0.02 0.02 0.03 0.03 0.03 0.02 0.01 0.00 0.00 0.00 0.00 0.00 0.00 0.00 0.00 0.00 0.00 0.00 0.00 0.00 0.00 0.00 0.00 0.00 0.00 0.00 0.00 0.00 0.00 0.00 0.00
0.00 0.00 0.00 0.00 0.00 0.00 0.00 0.00 0.00 0.00 0.00 0.00 0.01 0.01 0.00 0.00 0.00 0.01 0.01 0.02 0.01 0.01 0.02 0.01 0.02 0.02 0.01 0.01 0.02 0.02 0.02 0.02 0.02 0.02 0.02 0.03 0.03 0.02 0.00 0.00 0.00 0.00 0.00 0.00 0.00 0.00 0.00 0.00 0.00 0.00 0.00 0.00 0.00 0.00 0.00 0.00 0.00 0.00 0.00 0.00 0.00 0.00 0.00
0.00 0.00 0.00 0.00 0.00 0.00 0.00 0.00 0.00 0.00 0.00 0.00 0.00 0.01 0.00 0.00 0.00 0.01 0.02 0.03 0.00 0.00 0.02 0.01 0.02 0.02 0.01 0.01 0.02 0.02 0.02 0.02 0.02 0.02 0.02 0.03 0.03 0.02 0.00 0.00 0.00 0.00 0.00 0.00 0.00 0.00 0.00 0.00 0.00 0.00 0.00 0.00 0.00 0.00 0.00 0.00 0.00 0.00 0.00 0.00 0.00 0.00 0.00
0.00 0.00 0.00 0.00 0.00 0.00 0.00 0.00 0.00 0.00 0.00 0.00 0.00 0.00 0.00 0.00 0.00 0.00 0.05 0.02 0.01 0.01 0.01 0.01 0.01 0.01 0.01 0.02 0.02 0.02 0.02 0.02 0.02 0.02 0.02 0.03 0.02 0.00 0.00 0.00 0.00 0.00 0.00 0.00 0.00 0.00 0.00 0.00 0.00 0.00 0.00 0.00 0.00 0.00 0.00 0.00 0.00 0.00 0.00 0.00 0.00 0.00 0.00
0.00 0.00 0.00 0.00 0.00 0.00 0.00 0.00 0.00 0.00 0.00 0.00 0.00 0.00 0.00 0.01 0.00 0.01 0.03 0.02 0.02 0.01 0.01 0.01 0.01 0.01 0.01 0.02 0.02 0.02 0.02 0.02 0.02 0.02 0.02 0.02 0.00 0.00 0.00 0.00 0.00 0.00 0.00 0.00 0.00 0.00 0.00 0.00 0.00 0.00 0.00 0.00 0.00 0.00 0.00 0.00 0.00 0.00 0.00 0.00 0.00 0.00 0.00
0.00 0.00 0.00 0.00 0.00 0.00 0.00 0.00 0.00 0.00 0.00 0.00 0.00 0.00 0.00 0.00 0.00 0.00 0.01 0.02 0.02 0.01 0.01 0.02 0.01 0.01 0.02 0.04 0.03 0.02 0.02 0.02 0.02 0.02 0.01 0.02 0.00 0.00 0.00 0.00 0.00 0.00 0.00 0.00 0.00 0.00 0.00 0.00 0.00 0.00 0.00 0.00 0.00 0.00 0.00 0.00 0.00 0.00 0.00 0.00 0.00 0.00 0.00
0.00 0.00 0.00 0.00 0.00 0.00 0.00 0.00 0.00 0.00 0.00 0.00 0.00 0.00 0.00 0.00 0.00 0.01 0.01 0.02 0.01 0.01 0.02 0.02 0.02 0.01 0.01 0.03 0.04 0.03 0.03 0.03 0.01 0.01 0.02 0.01 0.00 0.00 0.00 0.00 0.00 0.00 0.00 0.00 0.00 0.00 0.00 0.00 0.00 0.00 0.00 0.00 0.00 0.00 0.00 0.00 0.00 0.00 0.00 0.00 0.00 0.00 0.00
0.00 0.00 0.00 0.00 0.00 0.00 0.00 0.00 0.00 0.00 0.00 0.00 0.00 0.00 0.00 0.00 0.00 0.00 0.01 0.02 0.01 0.01 0.01 0.01 0.02 0.02 0.01 0.02 0.04 0.03 0.02 0.02 0.02 0.01 0.01 0.01 0.00 0.00 0.00 0.00 0.00 0.00 0.00 0.00 0.00 0.00 0.00 0.00 0.00 0.00 0.00 0.00 0.00 0.00 0.00 0.00 0.00 0.00 0.00 0.00 0.00 0.00 0.00
0.00 0.00 0.00 0.00 0.00 0.00 0.00 0.00 0.00 0.00 0.00 0.00 0.00 0.00 0.00 0.00 0.00 0.00 0.00 0.01 0.02 0.02 0.01 0.01 0.01 0.02 0.03 0.02 0.03 0.04 0.02 0.01 0.01 0.01 0.00 0.00 0.00 0.00 0.00 0.00 0.00 0.00 0.00 0.00 0.00 0.00 0.00 0.00 0.00 0.00 0.00 0.00 0.00 0.00 0.00 0.00 0.00 0.00 0.00 0.00 0.00 0.00 0.00
0.00 0.00 0.00 0.00 0.00 0.00 0.00 0.00 0.00 0.00 0.00 0.00 0.00 0.00 0.00 0.00 0.00 0.01 0.01 0.01 0.01 0.02 0.01 0.02 0.02 0.01 0.02 0.02 0.02 0.02 0.02 0.01 0.01 0.00 0.00 0.00 0.00 0.00 0.00 0.00 0.00 0.00 0.00 0.00 0.00 0.00 0.00 0.01 0.00 0.00 0.00 0.00 0.00 0.00 0.00 0.00 0.00 0.00 0.00 0.00 0.00 0.00 0.00
0.00 0.00 0.00 0.00 0.00 0.00 0.00 0.00 0.00 0.00 0.00 0.00 0.00 0.00 0.00 0.00 0.00 0.01 0.01 0.01 0.01 0.01 0.02 0.02 0.02 0.02 0.01 0.01 0.01 0.01 0.01 0.01 0.01 0.00 0.00 0.00 0.00 0.00 0.00 0.00 0.00 0.00 0.00 0.00 0.00 0.00 0.00 0.00 0.00 0.00 0.00 0.00 0.00 0.00 0.00 0.00 0.00 0.00 0.00 0.00 0.00 0.00 0.00
MSLP
1012.81 1013.17 1013.37 1013.41 1013.77 1013.73 1013.93 1013.93 1013.77 1013.81 1013.77 1013.77 1013.73 1013.69 1013.65 1013.69 1013.65 1013.49 1013.61 1013.65 1013.93 1014.01 1013.85 1013.73 1013.81 1013.77 1013.93 1013.97 1013.97 1013.93 1013.81 1013.77 1013.69 1013.77 1013.81 1013.69 1013.57 1013.61 1013.57 1013.17 1013.29 1013.45 1013.25 1013.41 1013.49 1013.57 1013.53 1013.33 1013.29 1013.29 1013.49 1013.65 1013.73 1013.89 1013.97 1013.85 1013.65 1013.49 1013.61 1013.57 1013.53 1013.57 1013.65
1013.05 1013.09 1013.33 1013.37 1013.85 1013.93 1013.89 1013.77 1013.73 1013.73 1013.77 1013.77 1013.73 1013.81 1013.57 1013.61 1013.53 1013.53 1013.65 1013.61 1013.65 1013.77 1013.65 1013.57 1013.73 1013.73 1013.73 1013.81 1013.69 1013.81 1013.93 1013.85 1013.81 1013.73 1013.65 1013.81 1013.69 1013.49 1013.17 1013.25 1013.21 1013.49 1013.41 1013.21 1013.33 1013.29 1013.37 1013.29 1013.21 1013.37 1013.57 1013.61 1013.81 1013.81 1013.77 1013.73 1013.73 1013.69 1013.65 1013.53 1013.41 1013.73 1013.57
1013.09 1013.29 1013.61 1013.85 1013.93 1013.97 1014.01 1013.85 1013.81 1013.69 1013.61 1013.57 1013.65 1013.65 1013.77 1013.81 1013.53 1013.61 1013.57 1013.65 1013.73 1013.69 1013.53 1013.57 1013.57 1013.61 1013.61 1013.65 1013.73 1013.77 1013.65 1013.65 1013.73 1013.81 1013.77 1013.65 1013.53 1013.29 1013.37 1013.41 1013.17 1013.09 1013.05 1013.17 1013.13 1013.13 1013.05 1013.33 1013.37 1013.29 1013.53 1013.73 1013.73 1013.93 1013.81 1013.77 1013.73 1013.65 1013.73 1013.57 1013.25 1013.69 1013.77
1013.45 1013.69 1013.89 1013.97 1014.01 1013.93 1013.85 1013.85 1013.85 1013.65 1013.45 1013.37 1013.45 1013.37 1013.49 1013.69 1013.41 1013.45 1013.49 1013.37 1013.65 1013.65 1013.77 1013.69 1013.49 1013.53 1013.53 1013.65 1013.61 1013.65 1013.65 1013.57 1013.45 1013.49 1013.49 1013.33 1013.41 1013.33 1013.33 1013.29 1013.25 1013.01 1013.17 1013.05 1012.93 1013.13 1013.13 1013.21 1013.41 1013.73 1013.85 1013.85 1013.89 1013.81 1013.81 1013.85 1013.73 1013.77 1013.77 1013.65 1013.29 1013.53 1013.17
1013.61 1013.61 1013.77 1013.93 1014.01 1014.01 1013.85 1013.89 1013.85 1013.81 1013.61 1013.41 1013.37 1013.41 1013.29 1013.13 1013.13 1013.17 1013.29 1013.41 1013.53 1013.81 1013.61 1013.65 1013.57 1013.41 1013.45 1013.33 1013.33 1013.37 1013.41 1013.41 1013.41 1013.25 1013.29 1013.33 1013.37 1013.29 1013.21 1013.13 1013.05 1013.01 1013.17 1012.89 1013.01 1013.21 1013.41 1013.37 1013.49 1013.81 1013.97 1013.97 1013.97 1014.05 1013.93 1013.69 1013.77 1013.85 1013.93 1013.73 1013.81 1013.69 1013.41
1013.61 1013.97 1014.09 1014.01 1014.05 1014.01 1013.89 1013.69 1013.53 1013.41 1013.49 1013.53 1013.57 1013.33 1013.01 1013.05 1013.05 1013.17 1013.33 1013.61 1013.73 1013.73 1013.73 1013.77 1013.81 1013.69 1013.61 1013.29 1013.37 1013.41 1013.29 1013.33 1013.37 1013.33 1013.37 1013.45 1013.33 1013.09 1013.09 1013.05 1013.05 1013.01 1012.89 1012.97 1012.89 1013.17 1013.37 1013.33 1013.57 1013.85 1013.89 1013.77 1013.85 1013.93 1013.41 1013.45 1013.73 1013.81 1013.93 1013.89 1014.09 1013.89 1013.77
1013.61 1013.73 1013.89 1013.85 1013.77 1013.77 1013.77 1013.69 1013.49 1013.41 1013.25 1013.17 1013.17 1013.17 1013.05 1013.17 1013.17 1013.25 1013.33 1013.61 1013.69 1013.97 1013.77 1013.85 1013.85 1013.81 1013.89 1013.73 1013.77 1013.69 1013.57 1013.33 1013.33 1013.41 1013.25 1013.25 1013.29 1013.17 1013.13 1013.17 1013.01 1012.93 1012.89 1013.13 1013.25 1013.33 1013.49 1013.69 1013.89 1013.97 1013.89 1013.77 1013.81 1013.73 1014.17 1014.45 1014.29 1013.97 1013.93 1014.01 1014.21 1014.01 1013.77
1013.29 1013.61 1013.61 1013.61 1013.53 1013.25 1013.37 1013.49 1013.41 1013.25 1013.29 1013.21 1013.29 1013.25 1013.25 1012.93 1012.93 1013.17 1013.37 1013.45 1013.53 1013.53 1013.69 1013.81 1013.73 1013.93 1014.05 1013.93 1013.85 1013.85 1013.69 1013.61 1013.49 1013.49 1013.49 1013.57 1013.41 1013.25 1013.09 1013.09 1013.21 1013.17 1013.17 1013.21 1013.41 1013.41 1013.53 1013.69 1013.57 1013.77 1013.85 1013.73 1013.89 1014.09 1014.29 1014.57 1014.53 1014.21 1014.13 1014.29 1014.45 1014.17 1013.73
1013.17 1013.25 1013.37 1013.37 1013.25 1013.21 1013.29 1013.33 1013.41 1013.29 1013.29 1013.49 1013.65 1013.57 1013.25 1012.97 1013.01 1013.05 1013.29 1013.45 1013.53 1013.73 1013.81 1013.57 1013.73 1013.85 1013.89 1013.89 1013.89 1013.89 1013.73 1013.73 1013.69 1013.69 1013.81 1013.81 1013.41 1013.25 1013.13 1013.17 1013.33 1013.29 1013.25 1013.37 1013.45 1013.41 1013.45 1013.57 1013.65 1013.93 1014.01 1014.17 1014.45 1014.37 1014.29 1014.49 1014.41 1014.37 1014.41 1014.53 1014.53 1014.41 1014.21
1013.45 1013.57 1013.61 1013.37 1013.25 1013.13 1013.53 1013.45 1013.33 1013.41 1013.57 1013.49 1013.61 1013.65 1013.49 1013.29 1013.29 1013.25 1013.41 1013.41 1013.41 1013.77 1013.77 1013.81 1013.81 1013.69 1013.73 1013.81 1013.81 1013.77 1013.73 1013.81 1013.77 1013.89 1014.01 1013.97 1013.73 1013.85 1013.69 1013.45 1013.57 1013.53 1013.57 1013.57 1013.25 1013.41 1013.61 1013.69 1013.89 1014.13 1014.45 1014.57 1014.61 1014.61 1014.69 1014.77 1014.69 1014.65 1014.45 1014.57 1014.57 1014.57 1014.45
1013.37 1013.57 1013.53 1013.45 1013.69 1013.77 1013.77 1013.69 1013.73 1013.69 1013.53 1013.61 1013.45 1013.21 1013.41 1013.49 1013.25 1013.29 1013.13 1013.17 1013.25 1013.49 1013.57 1013.65 1013.49 1013.49 1013.57 1013.65 1013.85 1013.81 1013.85 1013.89 1013.93 1014.01 1014.05 1013.89 1013.57 1013.65 1013.85 1013.73 1013.69 1013.73 1013.73 1013.61 1013.73 1013.89 1013.93 1014.17 1014.21 1014.49 1014.45 1014.37 1014.49 1014.69 1014.77 1014.73 1014.73 1014.77 1014.77 1014.69 1014.57 1014.53 1014.49
1013.65 1013.61 1013.89 1013.69 1013.77 1014.01 1014.13 1014.01 1013.77 1013.65 1013.57 1013.37 1012.93 1012.81 1013.13 1013.29 1013.05 1012.97 1013.01 1013.01 1012.85 1013.25 1013.41 1013.45 1013.05 1013.29 1013.41 1013.41 1013.61 1013.77 1013.81 1013.85 1013.85 1013.89 1013.81 1013.73 1013.65 1013.85 1014.05 1014.05 1014.13 1014.05 1013.93 1013.85 1014.21 1014.09 1014.21 1014.49 1014.33 1014.45 1014.53 1014.61 1014.69 1014.73 1014.89 1014.81 1014.69 1015.01 1015.01 1014.89 1014.77 1014.65 1014.57
1013.45 1013.73 1013.77 1013.89 1014.05 1014.05 1014.13 1014.09 1013.93 1013.69 1013.53 1013.05 1012.89 1012.97 1013.05 1012.97 1013.09 1012.97 1013.17 1013.21 1013.01 1012.93 1013.13 1013.17 1013.13 1013.25 1013.41 1013.37 1013.45 1013.69 1013.81 1013.81 1013.77 1013.69 1013.65 1013.77 1013.97 1014.05 1014.13 1014.21 1014.21 1014.25 1014.37 1014.21 1014.29 1014.33 1014.49 1014.57 1014.73 1014.57 1014.65 1014.77 1014.73 1014.85 1014.97 1015.01 1015.09 1015.25 1015.21 1015.09 1014.97 1014.93 1014.85
1013.45 1013.37 1013.61 1013.77 1013.93 1014.17 1014.29 1014.13 1013.89 1013.77 1013.53 1013.37 1013.29 1013.09 1013.13 1013.01 1012.89 1013.01 1013.09 1013.25 1013.13 1013.09 1013.05 1013.05 1013.21 1013.45 1013.65 1013.69 1013.65 1013.81 1013.85 1013.61 1013.41 1013.69 1013.73 1013.81 1013.97 1014.01 1014.09 1014.25 1014.25 1014.33 1014.37 1014.37 1014.53 1014.53 1014.53 1014.53 1014.65 1014.73 1014.77 1015.01 1015.13 1015.09 1015.05 1015.13 1015.09 1015.17 1015.25 1015.17 1015.21 1015.09 1014.97
1013.37 1013.53 1013.45 1013.61 1014.01 1014.09 1014.09 1014.05 1013.89 1013.65 1013.49 1013.29 1013.17 1013.25 1013.21 1013.25 1013.25 1013.13 1013.13 1012.97 1013.09 1013.05 1013.09 1012.97 1013.29 1013.53 1013.73 1013.89 1013.93 1013.85 1013.69 1013.61 1013.65 1013.77 1014.01 1014.09 1014.17 1014.29 1014.29 1014.41 1014.41 1014.45 1014.49 1014.53 1014.57 1014.61 1014.61 1014.57 1014.73 1014.97 1015.01 1015.05 1015.17 1015.17 1015.05 1015.09 1015.37 1015.61 1015.69 1015.53 1015.33 1015.21 1015.09
1013.61 1013.53 1013.45 1013.57 1013.89 1013.89 1013.81 1013.69 1013.53 1013.45 1013.29 1013.33 1013.29 1013.25 1013.29 1013.33 1013.37 1013.33 1013.29 1013.21 1013.09 1013.09 1013.01 1013.13 1013.49 1013.69 1013.85 1013.93 1013.85 1013.69 1013.69 1013.85 1014.09 1014.37 1014.49 1014.73 1014.97 1014.93 1014.77 1014.69 1014.65 1014.69 1014.73 1014.77 1014.77 1014.89 1014.97 1015.05 1015.17 1015.13 1015.33 1015.53 1015.45 1015.29 1015.21 1015.45 1015.81 1016.33 1016.33 1016.17 1015.85 1015.41 1015.17
1013.69 1013.65 1013.89 1013.97 1013.97 1013.89 1013.65 1013.45 1013.33 1013.29 1013.33 1013.37 1013.33 1013.25 1013.29 1013.29 1013.25 1013.21 1013.25 1013.17 1013.17 1013.21 1013.13 1013.21 1013.53 1013.69 1013.81 1013.85 1013.69 1013.81 1013.97 1014.17 1014.33 1014.37 1014.53 1014.61 1014.73 1014.85 1014.89 1014.93 1014.85 1014.93 1015.05 1015.01 1015.01 1015.21 1015.33 1015.41 1015.41 1015.41 1015.53 1015.53 1015.65 1015.65 1015.69 1015.85 1016.29 1016.65 1016.53 1016.37 1016.13 1015.65 1015.25
1014.09 1014.13 1014.13 1014.13 1013.97 1013.81 1013.65 1013.49 1013.45 1013.41 1013.37 1013.37 1013.37 1013.29 1013.29 1013.33 1013.21 1013.25 1013.37 1013.21 1013.25 1013.17 1013.13 1013.37 1013.45 1013.69 1013.69 1013.69 1013.73 1013.97 1014.21 1014.29 1014.37 1014.53 1014.65 1014.65 1014.81 1014.97 1015.13 1015.25 1015.13 1015.17 1015.21 1015.17 1015.29 1015.33 1015.25 1015.41 1015.53 1015.53 1015.49 1015.57 1015.65 1015.69 1015.85 1016.25 1016.77 1016.73 1016.61 1016.41 1016.21 1015.93 1015.45
1013.93 1014.09 1014.25 1014.13 1014.01 1013.81 1013.57 1013.53 1013.49 1013.49 1013.37 1013.17 1013.21 1013.33 1013.21 1013.09 1013.33 1013.49 1013.33 1013.41 1013.25 1013.13 1013.37 1013.45 1013.45 1013.61 1013.77 1013.81 1013.85 1014.09 1014.25 1014.41 1014.53 1014.65 1014.81 1014.85 1015.13 1015.25 1015.25 1015.29 1015.53 1015.33 1015.33 1015.37 1015.21 1015.29 1015.53 1015.65 1015.65 1015.61 1015.53 1015.73 1015.81 1015.77 1015.85 1016.29 1016.81 1016.77 1016.61 1016.45 1016.29 1016.01 1015.57
1013.65 1013.89 1013.85 1013.69 1013.57 1013.41 1013.29 1013.05 1013.09 1013.17 1013.29 1013.29 1013.17 1013.01 1013.01 1013.05 1013.25 1013.25 1013.17 1013.09 1013.05 1013.33 1013.37 1013.45 1013.49 1013.57 1013.77 1013.89 1013.97 1014.09 1014.25 1014.45 1014.61 1014.77 1014.81 1015.01 1015.13 1015.05 1015.21 1015.41 1015.69 1015.25 1015.17 1015.17 1015.29 1015.53 1015.61 1015.53 1015.73 1015.77 1015.85 1015.81 1015.89 1015.89 1016.01 1016.37 1016.77 1016.77 1016.61 1016.45 1016.29 1015.93 1015.61
1013.97 1013.89 1013.89 1013.77 1013.61 1013.33 1013.25 1013.25 1013.17 1013.17 1013.25 1013.25 1013.21 1013.13 1013.17 1013.33 1013.13 1012.97 1013.13 1013.17 1013.33 1013.29 1013.41 1013.37 1013.49 1013.65 1013.73 1013.89 1014.09 1014.25 1014.29 1014.41 1014.57 1014.73 1014.93 1015.09 1015.29 1015.37 1015.33 1015.37 1015.21 1015.21 1015.25 1015.29 1015.45 1015.65 1015.65 1015.45 1015.73 1015.85 1015.81 1015.85 1015.77 1015.73 1016.05 1016.49 1016.77 1016.69 1016.57 1016.41 1016.25 1015.93 1015.37
1013.81 1013.73 1013.81 1013.45 1013.49 1013.37 1013.29 1013.29 1013.29 1013.29 1013.33 1013.05 1013.09 1013.13 1013.13 1013.21 1013.09 1013.25 1013.29 1013.09 1013.33 1013.45 1013.49 1013.53 1013.61 1013.77 1013.85 1014.01 1014.09 1014.25 1014.25 1014.45 1014.73 1014.81 1014.81 1014.89 1015.13 1015.29 1015.25 1015.17 1015.17 1015.25 1015.25 1015.29 1015.33 1015.29 1015.21 1015.41 1015.53 1015.81 1015.89 1015.81 1015.65 1015.73 1016.05 1016.45 1016.73 1016.57 1016.49 1016.41 1016.17 1015.85 1015.01
1013.37 1013.41 1013.21 1012.97 1012.65 1012.93 1012.85 1012.85 1012.97 1013.05 1012.97 1012.97 1013.01 1013.13 1013.21 1013.09 1013.09 1013.21 1013.29 1013.41 1013.41 1013.49 1013.57 1013.73 1013.89 1013.97 1014.09 1014.13 1014.09 1014.17 1014.21 1014.33 1014.61 1014.73 1014.73 1014.81 1015.05 1015.25 1015.29 1015.21 1015.21 1015.17 1015.09 1015.37 1015.37 1015.45 1015.45 1015.57 1015.53 1015.57 1015.69 1015.81 1015.73 1015.81 1015.89 1016.17 1016.61 1016.53 1016.49 1016.41 1016.25 1015.77 1015.09
1012.61 1012.65 1012.49 1012.53 1012.61 1012.53 1012.53 1012.57 1012.53 1012.73 1012.93 1013.01 1013.21 1013.21 1013.05 1012.97 1013.17 1013.25 1013.37 1013.49 1013.53 1013.65 1013.77 1013.97 1014.05 1014.09 1014.21 1014.25 1014.13 1014.21 1014.25 1014.33 1014.53 1014.69 1014.69 1014.69 1014.81 1014.97 1015.01 1014.97 1014.93 1015.09 1015.01 1015.25 1015.45 1015.57 1015.53 1015.53 1015.69 1015.73 1015.73 1015.81 1015.81 1015.73 1015.69 1015.89 1016.45 1016.49 1016.49 1016.45 1016.29 1015.93 1015.41
1012.25 1012.21 1012.37 1012.53 1012.57 1012.77 1012.53 1012.77 1012.85 1012.93 1012.85 1013.01 1013.41 1013.33 1013.01 1012.89 1012.89 1013.21 1013.45 1013.53 1013.61 1013.69 1013.93 1014.09 1014.13 1014.25 1014.33 1014.21 1014.05 1014.17 1014.17 1014.21 1014.37 1014.57 1014.61 1014.73 1014.89 1014.85 1014.97 1015.05 1015.01 1014.93 1014.93 1015.09 1015.21 1015.45 1015.49 1015.45 1015.73 1015.89 1015.89 1015.85 1015.89 1016.01 1015.69 1015.57 1016.33 1016.49 1016.53 1016.49 1016.37 1016.05 1015.53
1012.61 1012.61 1012.53 1012.33 1012.25 1012.25 1012.49 1012.65 1012.73 1012.89 1013.09 1013.37 1013.53 1013.17 1013.13 1013.05 1013.17 1013.41 1013.57 1013.69 1013.65 1013.81 1013.89 1013.97 1014.01 1014.05 1014.01 1014.05 1014.05 1014.01 1014.09 1014.17 1014.29 1014.45 1014.57 1014.73 1014.77 1014.73 1014.73 1014.73 1014.89 1015.05 1015.13 1015.17 1015.09 1015.33 1015.37 1015.53 1015.61 1016.01 1015.85 1015.89 1015.81 1015.77 1015.69 1015.73 1015.93 1016.45 1016.57 1016.53 1016.41 1016.21 1015.77
1012.33 1012.41 1012.61 1012.53 1012.69 1012.65 1012.49 1012.53 1012.69 1012.93 1013.09 1013.25 1013.25 1013.13 1013.05 1013.05 1013.21 1013.57 1013.61 1013.73 1013.81 1013.93 1013.89 1013.81 1013.77 1013.89 1014.09 1014.05 1014.01 1014.05 1014.09 1014.21 1014.25 1014.37 1014.45 1014.53 1014.65 1014.65 1014.73 1014.69 1014.93 1015.09 1015.25 1015.37 1015.25 1015.41 1015.61 1015.73 1015.73 1015.89 1015.93 1015.85 1015.77 1015.69 1015.69 1015.73 1015.97 1016.45 1016.61 1016.53 1016.45 1016.25 1015.93
1012.49 1012.49 1012.41 1012.65 1012.97 1012.89 1012.73 1012.49 1012.65 1012.73 1012.73 1013.01 1013.17 1013.17 1013.05 1013.01 1013.41 1013.53 1013.57 1013.65 1013.93 1013.85 1013.57 1013.65 1013.73 1013.85 1013.97 1013.93 1013.97 1014.05 1014.13 1014.29 1014.37 1014.41 1014.45 1014.61 1014.77 1014.93 1014.89 1014.69 1014.77 1014.97 1015.21 1015.25 1015.45 1015.69 1015.81 1015.85 1015.85 1015.85 1015.85 1015.77 1015.65 1015.61 1015.65 1015.89 1015.97 1016.05 1016.49 1016.49 1016.45 1016.33 1016.17
1013.13 1013.21 1013.29 1013.29 1013.09 1012.85 1012.85 1012.93 1012.97 1013.05 1013.29 1013.17 1013.17 1013.17 1013.09 1013.13 1013.49 1013.57 1013.41 1013.73 1013.81 1013.53 1013.57 1013.69 1013.77 1013.89 1013.89 1013.97 1014.17 1014.25 1014.29 1014.37 1014.53 1014.69 1014.57 1014.69 1014.77 1014.85 1014.85 1014.89 1015.01 1015.09 1015.21 1015.41 1015.57 1015.73 1015.85 1015.89 1015.77 1015.77 1015.77 1015.69 1015.57 1015.49 1015.57 1015.61 1015.77 1016.09 1016.09 1016.29 1016.29 1016.25 1016.25
1013.29 1013.25 1013.17 1012.81 1012.81 1012.97 1013.13 1013.49 1013.45 1013.53 1013.33 1013.29 1013.25 1013.25 1013.17 1013.29 1013.65 1013.57 1013.89 1014.09 1013.61 1013.57 1013.61 1013.81 1013.89 1013.89 1014.05 1014.17 1014.25 1014.41 1014.45 1014.49 1014.57 1014.61 1014.61 1014.65 1014.77 1014.73 1014.93 1015.13 1015.13 1015.25 1015.37 1015.45 1015.57 1015.69 1015.81 1015.73 1015.65 1015.65 1015.65 1015.65 1015.53 1015.45 1015.49 1015.69 1015.57 1016.01 1016.13 1016.01 1016.09 1016.09 1016.21
1013.61 1013.53 1013.33 1013.45 1013.41 1013.45 1013.61 1013.93 1014.01 1013.85 1013.73 1013.41 1013.17 1013.17 1013.17 1013.17 1013.53 1013.57 1014.09 1013.65 1013.41 1013.77 1013.81 1014.01 1014.09 1014.13 1014.21 1014.29 1014.37 1014.45 1014.45 1014.49 1014.49 1014.53 1014.53 1014.49 1014.57 1014.89 1015.09 1015.25 1015.25 1015.49 1015.45 1015.45 1015.49 1015.53 1015.57 1015.53 1015.33 1015.49 1015.41 1015.45 1015.53 1015.45 1015.53 1015.69 1015.73 1015.73 1015.93 1015.97 1015.85 1015.93 1016.01
1013.77 1013.61 1013.45 1013.45 1013.69 1013.81 1013.93 1013.81 1013.81 1013.89 1014.01 1013.77 1013.25 1013.17 1013.13 1013.09 1013.13 1013.73 1013.73 1013.29 1013.37 1013.61 1013.85 1014.01 1014.21 1014.33 1014.37 1014.33 1014.33 1014.41 1014.45 1014.65 1014.61 1014.57 1014.49 1014.41 1014.25 1014.57 1014.77 1014.97 1015.09 1015.21 1015.41 1015.37 1015.25 1015.25 1015.29 1015.33 1015.05 1015.05 1014.97 1015.25 1015.25 1015.33 1015.49 1015.69 1015.65 1015.61 1015.61 1015.53 1015.45 1015.45 1015.73
1014.09 1013.97 1014.09 1014.21 1014.17 1014.13 1014.17 1014.09 1014.09 1014.21 1014.21 1014.29 1013.69 1013.41 1013.13 1013.25 1013.13 1013.25 1013.37 1013.49 1013.33 1013.57 1013.85 1014.01 1014.17 1014.37 1014.41 1014.45 1014.29 1014.33 1014.37 1014.53 1014.53 1014.57 1014.45 1014.45 1014.21 1014.17 1014.33 1014.45 1014.45 1014.73 1015.13 1014.97 1014.61 1014.69 1015.01 1014.93 1014.85 1014.73 1014.69 1014.81 1015.05 1015.25 1015.49 1015.61 1015.57 1015.49 1015.49 1015.41 1015.45 1015.33 1015.25
1014.41 1014.37 1014.29 1014.17 1014.25 1014.25 1014.33 1014.41 1014.45 1014.45 1014.41 1014.45 1014.09 1013.73 1013.57 1013.57 1013.53 1013.33 1013.41 1013.49 1013.57 1013.73 1013.97 1014.17 1014.21 1014.33 1014.49 1014.49 1014.41 1014.45 1014.53 1014.45 1014.57 1014.49 1014.29 1014.25 1014.05 1014.01 1014.01 1014.25 1014.25 1014.29 1014.49 1014.37 1014.29 1014.41 1014.37 1014.25 1014.33 1014.57 1014.57 1014.57 1014.69 1015.21 1015.45 1015.45 1015.37 1015.41 1015.61 1015.69 1015.81 1015.73 1015.37
1014.45 1014.49 1014.41 1014.53 1014.53 1014.49 1014.77 1014.69 1014.69 1014.61 1014.53 1014.49 1014.09 1013.97 1013.97 1013.89 1013.73 1013.53 1013.61 1013.65 1013.69 1013.81 1013.93 1014.09 1014.33 1014.41 1014.33 1014.29 1014.37 1014.53 1014.53 1014.41 1014.57 1014.45 1014.25 1014.09 1013.97 1014.21 1014.57 1014.81 1014.45 1014.33 1014.17 1014.45 1014.81 1014.93 1014.85 1014.69 1014.41 1014.29 1014.25 1014.21 1014.65 1015.01 1015.21 1015.13 1015.33 1015.85 1016.17 1016.33 1016.61 1016.41 1016.01
1014.49 1014.53 1014.57 1014.37 1014.37 1014.53 1014.69 1014.73 1014.73 1014.77 1014.73 1014.49 1014.17 1014.09 1014.13 1014.01 1013.93 1013.85 1013.81 1013.81 1013.81 1013.89 1014.09 1014.13 1014.13 1014.37 1014.49 1014.33 1014.37 1014.41 1014.41 1014.37 1014.33 1014.33 1014.29 1013.93 1013.97 1014.49 1015.13 1015.77 1015.93 1015.73 1015.37 1015.09 1015.69 1015.85 1015.81 1015.65 1015.25 1015.13 1014.81 1014.37 1014.57 1014.97 1015.01 1015.13 1015.73 1016.45 1016.61 1016.73 1016.77 1016.85 1016.77
1014.89 1014.85 1014.77 1014.53 1014.69 1014.85 1014.93 1014.93 1014.77 1014.69 1014.73 1014.53 1014.25 1014.17 1014.13 1014.13 1014.01 1013.97 1013.93 1014.01 1014.05 1014.05 1014.09 1014.09 1014.25 1014.25 1014.25 1014.45 1014.41 1014.45 1014.41 1014.17 1013.73 1013.85 1014.33 1013.85 1013.81 1014.29 1014.77 1015.21 1015.69 1016.05 1016.09 1015.97 1016.05 1016.13 1016.09 1016.01 1015.85 1015.77 1015.69 1015.25 1014.97 1015.61 1015.89 1015.97 1016.37 1016.57 1016.69 1016.81 1016.81 1016.81 1016.73
1014.73 1014.81 1014.81 1014.73 1014.85 1015.01 1015.09 1015.05 1014.97 1014.93 1014.89 1014.53 1014.33 1014.25 1014.13 1014.13 1014.09 1014.01 1013.93 1014.01 1014.01 1014.01 1014.05 1014.13 1014.33 1014.49 1014.33 1014.17 1014.25 1014.65 1014.65 1014.09 1013.93 1014.09 1014.53 1014.53 1014.33 1014.37 1014.65 1014.85 1015.01 1015.65 1016.17 1016.29 1016.13 1016.25 1016.33 1016.17 1016.05 1016.01 1015.81 1015.53 1015.41 1015.29 1015.65 1016.21 1016.41 1016.61 1016.69 1016.81 1016.77 1016.61 1016.65
Thickness
5809 5807 5804 5801 5799 5795 5793 5792 5791 5789 5787 5785 5784 5784 5784 5783 5783 5783 5781 5780 5778 5776 5776 5775 5774 5772 5770 5769 5768 5768 5767 5768 5768 5767 5767 5767 5767 5766 5766 5767 5766 5764 5764 5764 5762 5761 5760 5760 5760 5758 5755 5752 5749 5747 5746 5744 5744 5743 5741 5740 5739 5738 5737
5808 5805 5804 5800 5796 5793 5792 5791 5790 5789 5787 5785 5784 5784 5783 5782 5782 5782 5781 5780 5778 5777 5778 5777 5774 5773 5772 5770 5769 5768 5768 5767 5767 5766 5766 5766 5766 5767 5767 5767 5766 5764 5764 5764 5762 5761 5760 5759 5759 5756 5753 5750 5748 5746 5745 5744 5742 5742 5739 5739 5738 5735 5734
5806 5803 5801 5797 5794 5792 5790 5790 5788 5788 5787 5786 5785 5784 5782 5782 5782 5781 5781 5780 5778 5777 5777 5776 5775 5774 5772 5771 5770 5769 5768 5767 5766 5766 5766 5766 5766 5766 5766 5765 5765 5765 5763 5763 5762 5761 5760 5758 5757 5754 5751 5749 5746 5744 5744 5742 5741 5740 5738 5738 5738 5735 5733
5803 5802 5798 5795 5793 5792 5790 5790 5787 5787 5788 5787 5786 5785 5783 5783 5783 5783 5782 5781 5778 5776 5775 5774 5774 5773 5772 5771 5770 5769 5769 5768 5767 5767 5767 5766 5766 5765 5764 5764 5764 5764 5762 5762 5761 5760 5758 5756 5754 5751 5748 5746 5744 5742 5741 5740 5739 5737 5736 5736 5736 5735 5734
5802 5800 5797 5794 5793 5791 5791 5790 5788 5788 5787 5787 5786 5785 5785 5785 5785 5784 5781 5780 5777 5775 5774 5773 5772 5772 5771 5772 5771 5770 5770 5768 5768 5767 5766 5765 5764 5765 5764 5763 5763 5762 5760 5762 5761 5757 5755 5754 5752 5748 5746 5744 5742 5741 5740 5739 5737 5735 5734 5734 5732 5732 5733
5802 5799 5796 5795 5793 5792 5791 5790 5790 5790 5788 5787 5786 5785 5787 5785 5783 5782 5780 5777 5774 5772 5772 5770 5769 5770 5769 5771 5770 5769 5769 5768 5767 5766 5766 5765 5764 5764 5764 5762 5762 5762 5761 5760 5758 5756 5754 5752 5750 5746 5744 5744 5741 5740 5740 5738 5736 5734 5732 5731 5729 5728 5730
5803 5799 5796 5795 5795 5794 5793 5791 5791 5791 5789 5790 5788 5786 5786 5785 5782 5781 5778 5775 5772 5770 5769 5768 5767 5767 5767 5767 5766 5765 5766 5766 5765 5765 5764 5763 5762 5762 5762 5761 5760 5760 5759 5758 5755 5753 5751 5749 5746 5744 5742 5741 5740 5739 5736 5732 5731 5731 5731 5728 5726 5726 5728
5804 5801 5798 5797 5797 5797 5795 5793 5792 5791 5790 5789 5787 5786 5786 5785 5785 5781 5778 5775 5773 5770 5768 5767 5767 5765 5764 5764 5763 5762 5762 5762 5762 5762 5761 5760 5760 5760 5760 5759 5758 5757 5756 5754 5752 5751 5749 5746 5744 5742 5741 5739 5736 5735 5732 5728 5728 5728 5727 5725 5723 5724 5725
5805 5802 5800 5799 5799 5798 5795 5794 5793 5792 5790 5788 5785 5785 5785 5785 5785 5781 5778 5776 5773 5769 5767 5767 5766 5765 5764 5763 5761 5761 5760 5760 5760 5758 5756 5756 5757 5757 5758 5757 5755 5754 5753 5751 5750 5749 5747 5745 5743 5740 5738 5735 5732 5731 5729 5727 5726 5725 5725 5723 5721 5721 5721
5804 5801 5800 5799 5798 5797 5795 5794 5794 5792 5790 5789 5786 5784 5784 5784 5783 5781 5778 5776 5773 5770 5768 5767 5767 5765 5765 5763 5761 5761 5760 5759 5758 5755 5753 5753 5753 5753 5752 5752 5751 5750 5749 5748 5748 5747 5744 5742 5740 5735 5733 5731 5729 5727 5726 5725 5724 5723 5722 5721 5720 5719 5718
5803 5800 5798 5798 5795 5794 5793 5792 5792 5791 5790 5789 5788 5787 5785 5783 5783 5781 5780 5778 5776 5773 5770 5769 5769 5768 5766 5764 5762 5761 5760 5758 5756 5754 5752 5752 5753 5751 5749 5748 5747 5746 5746 5745 5743 5742 5739 5737 5735 5732 5731 5730 5728 5726 5724 5723 5722 5720 5719 5719 5718 5717 5716
5802 5799 5797 5796 5794 5791 5790 5790 5790 5790 5790 5791 5792 5791 5787 5784 5784 5783 5781 5780 5779 5776 5772 5772 5772 5770 5767 5765 5763 5761 5759 5758 5757 5755 5754 5752 5751 5749 5745 5744 5743 5742 5741 5740 5738 5736 5735 5733 5732 5731 5728 5727 5726 5724 5722 5722 5721 5718 5716 5715 5715 5714 5714
5802 5799 5796 5795 5793 5790 5789 5789 5790 5790 5790 5791 5793 5791 5788 5786 5785 5784 5781 5779 5779 5778 5775 5773 5772 5769 5766 5764 5763 5760 5758 5758 5756 5755 5754 5751 5748 5745 5742 5741 5740 5737 5736 5736 5735 5733 5732 5730 5729 5728 5726 5724 5723 5722 5720 5719 5717 5715 5713 5712 5712 5712 5711
5801 5799 5797 5795 5791 5789 5789 5788 5789 5791 5791 5791 5791 5789 5788 5786 5785 5784 5781 5779 5778 5777 5776 5773 5770 5766 5763 5762 5760 5757 5756 5757 5756 5754 5751 5749 5746 5743 5741 5739 5737 5735 5733 5732 5731 5730 5730 5729 5727 5726 5725 5722 5721 5720 5718 5717 5715 5713 5711 5710 5710 5709 5708
5801 5799 5798 5796 5792 5790 5790 5790 5791 5792 5792 5792 5790 5789 5787 5785 5783 5782 5780 5779 5778 5776 5774 5772 5768 5764 5761 5759 5757 5756 5756 5755 5752 5749 5746 5744 5741 5739 5738 5736 5734 5733 5730 5729 5728 5727 5727 5727 5725 5723 5722 5720 5719 5718 5717 5716 5713 5709 5707 5707 5707 5707 5706
5799 5798 5797 5795 5793 5792 5792 5793 5794 5794 5793 5792 5791 5789 5787 5784 5782 5780 5779 5778 5777 5774 5773 5770 5766 5762 5759 5756 5755 5755 5753 5750 5746 5743 5740 5737 5734 5733 5733 5732 5731 5729 5727 5726 5725 5724 5723 5722 5721 5720 5719 5717 5716 5715 5715 5713 5708 5704 5702 5702 5703 5704 5704
5797 5796 5795 5793 5792 5793 5795 5796 5795 5795 5793 5791 5790 5789 5786 5784 5782 5780 5778 5777 5775 5772 5770 5767 5764 5761 5757 5755 5755 5752 5749 5745 5742 5739 5736 5734 5731 5730 5729 5728 5727 5726 5723 5723 5722 5721 5720 5719 5719 5718 5716 5715 5713 5712 5712 5709 5704 5700 5699 5699 5700 5701 5702
5795 5793 5792 5792 5793 5794 5795 5796 5795 5794 5792 5792 5790 5788 5785 5784 5782 5779 5777 5775 5773 5771 5769 5766 5763 5760 5757 5755 5752 5748 5744 5741 5738 5735 5733 5731 5728 5726 5725 5724 5723 5723 5721 5720 5719 5719 5719 5718 5716 5716 5715 5714 5712 5711 5710 5705 5701 5699 5698 5699 5698 5699 5701
5795 5793 5793 5793 5794 5795 5796 5796 5795 5793 5792 5792 5790 5787 5786 5784 5781 5778 5776 5774 5772 5770 5767 5765 5763 5759 5756 5753 5750 5746 5742 5739 5736 5733 5730 5728 5725 5724 5723 5721 5721 5721 5721 5719 5719 5718 5717 5716 5715 5715 5714 5713 5711 5711 5709 5704 5699 5698 5698 5698 5698 5697 5700
5795 5794 5794 5795 5796 5798 5798 5798 5797 5794 5792 5791 5789 5788 5786 5784 5781 5779 5777 5775 5772 5769 5766 5764 5763 5759 5756 5752 5748 5745 5741 5737 5734 5731 5728 5726 5723 5723 5722 5720 5719 5721 5721 5719 5719 5717 5716 5716 5715 5713 5713 5712 5710 5710 5708 5703 5699 5699 5698 5698 5698 5697 5700
5795 5795 5794 5796 5798 5798 5799 5798 5796 5794 5792 5790 5789 5788 5786 5784 5783 5780 5777 5776 5772 5768 5766 5764 5762 5759 5756 5752 5747 5744 5741 5737 5734 5731 5728 5726 5723 5723 5722 5722 5722 5722 5721 5720 5718 5717 5717 5717 5715 5713 5711 5711 5710 5709 5707 5703 5700 5699 5699 5698 5698 5698 5700
5795 5796 5796 5798 5799 5798 5798 5797 5795 5793 5791 5790 5789 5787 5785 5784 5782 5779 5777 5774 5771 5767 5765 5763 5761 5757 5755 5751 5747 5744 5741 5738 5734 5732 5730 5727 5725 5724 5724 5724 5724 5723 5721 5720 5719 5718 5718 5717 5714 5713 5712 5711 5711 5710 5707 5703 5700 5700 5699 5698 5697 5699 5701
5798 5798 5799 5802 5802 5801 5800 5798 5797 5794 5792 5790 5788 5786 5785 5784 5782 5779 5776 5773 5770 5767 5764 5761 5759 5756 5752 5749 5747 5744 5741 5739 5735 5733 5732 5730 5728 5727 5726 5726 5725 5724 5722 5720 5719 5718 5717 5716 5715 5714 5712 5712 5711 5711 5709 5705 5701 5700 5700 5698 5696 5699 5700
5803 5803 5804 5804 5803 5802 5802 5799 5797 5794 5792 5790 5787 5785 5786 5784 5781 5778 5774 5771 5769 5766 5762 5758 5756 5754 5751 5749 5747 5745 5742 5740 5737 5734 5732 5731 5729 5728 5727 5726 5725 5724 5723 5721 5719 5717 5716 5716 5715 5713 5712 5712 5710 5710 5710 5707 5702 5700 5699 5697 5695 5697 5698
5806 5806 5805 5805 5803 5802 5801 5798 5796 5793 5792 5789 5784 5783 5784 5783 5780 5776 5773 5771 5769 5765 5761 5757 5754 5753 5750 5749 5748 5746 5743 5741 5738 5735 5733 5731 5729 5729 5727 5726 5725 5724 5723 5722 5719 5718 5716 5716 5714 5711 5711 5711 5709 5709 5710 5708 5704 5700 5698 5697 5695 5695 5696
5804 5804 5803 5804 5803 5802 5801 5798 5795 5792 5789 5786 5783 5783 5782 5780 5778 5775 5771 5770 5768 5764 5761 5758 5754 5753 5750 5748 5748 5746 5745 5743 5740 5737 5735 5732 5731 5730 5729 5727 5726 5724 5722 5721 5721 5718 5717 5716 5714 5711 5711 5711 5710 5709 5709 5708 5705 5700 5697 5696 5694 5694 5695
5804 5804 5803 5802 5800 5800 5800 5798 5796 5792 5789 5786 5784 5782 5781 5779 5777 5773 5771 5769 5766 5763 5762 5759 5757 5754 5750 5748 5748 5746 5745 5744 5741 5739 5737 5734 5732 5731 5729 5728 5727 5724 5722 5721 5720 5719 5716 5715 5714 5712 5710 5710 5710 5709 5708 5707 5705 5700 5696 5695 5694 5693 5693
5803 5802 5801 5799 5797 5797 5798 5797 5795 5792 5788 5786 5784 5781 5780 5779 5775 5772 5771 5769 5765 5763 5763 5761 5758 5754 5751 5748 5746 5744 5743 5742 5740 5739 5737 5735 5733 5732 5730 5729 5727 5725 5723 5721 5719 5718 5715 5714 5714 5712 5711 5711 5711 5710 5709 5707 5704 5701 5697 5695 5694 5692 5691
5798 5797 5796 5796 5795 5795 5795 5793 5791 5788 5785 5784 5782 5780 5780 5777 5773 5772 5771 5767 5765 5765 5763 5760 5757 5754 5751 5748 5744 5742 5741 5740 5739 5738 5737 5736 5734 5732 5730 5729 5727 5725 5723 5721 5719 5717 5715 5714 5714 5712 5711 5711 5711 5711 5709 5707 5705 5702 5698 5696 5695 5693 5691
5795 5793 5793 5794 5794 5794 5791 5787 5785 5785 5783 5782 5781 5779 5779 5777 5773 5771 5768 5766 5766 5766 5762 5759 5757 5753 5750 5747 5743 5741 5740 5739 5738 5737 5737 5736 5735 5733 5731 5728 5726 5725 5723 5721 5720 5718 5716 5715 5714 5713 5712 5711 5711 5711 5709 5708 5706 5703 5699 5698 5696 5694 5691
5791 5791 5791 5792 5791 5789 5786 5783 5783 5782 5780 5781 5780 5779 5778 5777 5773 5769 5767 5767 5768 5765 5761 5758 5755 5752 5749 5745 5743 5741 5740 5739 5739 5737 5737 5737 5735 5733 5730 5727 5726 5724 5722 5721 5720 5718 5717 5717 5716 5715 5713 5712 5712 5711 5709 5707 5706 5703 5701 5699 5698 5696 5693
5788 5789 5789 5788 5787 5785 5784 5782 5782 5780 5778 5778 5779 5779 5778 5777 5775 5771 5768 5769 5769 5765 5761 5758 5754 5751 5749 5746 5744 5743 5741 5740 5739 5738 5738 5738 5738 5736 5732 5729 5728 5725 5722 5722 5723 5721 5719 5718 5717 5717 5716 5714 5713 5712 5709 5707 5706 5705 5704 5702 5701 5699 5696
5784 5785 5785 5784 5783 5782 5781 5780 5779 5777 5775 5774 5775 5777 5776 5775 5774 5773 5770 5770 5769 5765 5761 5758 5754 5751 5748 5746 5745 5744 5742 5740 5740 5739 5739 5738 5739 5738 5736 5733 5732 5728 5725 5725 5726 5724 5721 5720 5720 5719 5718 5717 5715 5712 5709 5707 5706 5706 5705 5702 5701 5699 5698
5781 5782 5782 5781 5781 5780 5778 5776 5776 5775 5773 5772 5772 5774 5773 5772 5772 5772 5770 5769 5767 5764 5760 5757 5754 5751 5749 5747 5746 5744 5742 5741 5740 5739 5740 5740 5740 5739 5737 5735 5734 5732 5729 5728 5727 5726 5724 5723 5723 5721 5720 5719 5717 5712 5709 5709 5708 5706 5704 5701 5698 5697 5698
5780 5780 5780 5780 5779 5777 5775 5773 5773 5772 5771 5771 5772 5772 5770 5770 5769 5769 5769 5767 5765 5764 5760 5756 5754 5752 5750 5749 5747 5744 5742 5741 5740 5739 5740 5740 5740 5737 5733 5730 5729 5730 5730 5727 5724 5721 5720 5721 5721 5721 5721 5721 5718 5713 5711 5711 5708 5703 5699 5697 5694 5693 5694
5778 5778 5779 5778 5777 5775 5774 5772 5771 5771 5770 5770 5771 5770 5769 5768 5767 5766 5766 5766 5764 5763 5760 5757 5755 5752 5750 5750 5748 5745 5744 5743 5742 5741 5740 5741 5740 5736 5729 5725 5723 5722 5723 5722 5718 5715 5715 5715 5716 5716 5717 5719 5717 5712 5711 5710 5705 5700 5696 5694 5692 5690 5689
5775 5775 5775 5776 5774 5772 5770 5770 5770 5770 5769 5769 5770 5769 5768 5767 5766 5765 5765 5764 5763 5761 5759 5757 5755 5752 5750 5749 5748 5745 5744 5745 5745 5742 5739 5739 5740 5736 5731 5727 5723 5719 5718 5717 5715 5713 5712 5712 5712 5711 5712 5714 5713 5710 5707 5704 5701 5698 5695 5693 5691 5690 5688
5773 5773 5773 5773 5772 5769 5767 5768 5768 5767 5767 5768 5768 5768 5767 5766 5765 5765 5764 5763 5762 5761 5759 5756 5754 5751 5751 5750 5748 5744 5743 5745 5746 5743 5738 5737 5737 5735 5732 5730 5726 5722 5718 5714 5713 5713 5711 5711 5710 5709 5709 5710 5711 5710 5707 5703 5700 5698 5695 5693 5692 5691 5689